Showing default

COSMOS 1833, 17589

Orbit data source: Space-Track

COSMOS 1833, 17589 is a payload satellite owned by GRU (CIS) in LEO that was launched on Wed, 18 Mar 1987 UTC via a ZENIT-2 launch vehicle from the Tyuratam Missile And Space Complex (TTMTR). Payload-class satellites include a variety of spacecraft equipped with specific instruments for various scientific and technological missions. These include communications satellites like Starlink; space stations such as the ISS; scientific satellites like the Hubble; Earth observation satellites from companies like Planet Labs, Umbra, and HawkEye 360; GPS; miniature CubeSats for education and research; and military/defense satellites.

Loading next visibility...
Identifier
17589, 1987-027A
Orbit
LEO
Last TLE update
11 hours ago
Origin
Manufacturer
Yuzhnoe
Mission
Defense Sigint
Bus & Motor
TSELINA-2, Unknown motor
Mass
3,250 kg wet, 3,250 kg dry
Launch date (UTC)
1987-03-18 (38 years ago)
Launch vehicle
ZENIT-2
Launch site
Tyuratam Missile And Space Complex (TTMTR)
Object type
Payload
Rocket body
Debris
Shape & HBR
Cyl + 2 Pan + 1 Ant, 22.7 m
Radar Cross Section
16.265 m², Large (>1 m²)

Expand to show TLE details & history

TLE from 11 hours ago
0 COSMOS 1833
1 17589U 87027A   25181.91680291  .00000119  00000-0  89466-4 0  9995
2 17589  70.9148 135.2214 0025024 221.9590 137.9614 14.13011065974744
Epoch: 2025-06-30T22:00Z
TLE epoch observation values (Epoch: 2025-06-30T22:00:11.771Z)
Latitude
-0.00006°
Longitude
-114.04741°
Altitude
864.933 km
Speed
7.413 km/s
True Right ascension
09h 00m 53s
True Declination
0° 00' 00"
Sunlit
Object was in daylight at epoch
Visualization orbit readout
Latitude
69.06419°
Longitude
0.9127°
Altitude
870.112 km
Speed
7.419 km/s
Apparent Right ascension
10h 25m 51s
Apparent Declination
33° 51' 33"
Sunlit
Object is in daylight
Visualization observer readout
Local Sidereal Time
20:18:07
Azimuth
333.462° NNW
Elevation
-10.545°
Doppler factor
1
Orbital elements
Apogee altitude
865.102 km
Perigee altitude
828.941 km
Semi-major axis
7,225.158 km
Eccentricity
0.0025
Inclination
70.9148°
RAAN
135.2214°
Arg. of periapsis
221.959°
True anomaly
Unknown
Mean anomaly
137.9614°
Eccentric anomaly
Unknown
Mean motion
3.53405 °/min
Orbital period
101.87 mins
BSTAR
0.000089466
Loading maneuver chart data...
Loading SW <> Apogee altitude chart data...
Loading historical data...
Loading historical data...
Loading historical data...
Loading historical data...
Loading historical data...
Loading historical data...
Loading historical data...

COSMOS 1833 Visibility forecast

Observer location: undefined°, undefined°

Span
Click to sort rows by Start time (UTC) header in descending order
Start Az.
Max El. time (UTC)
Max El. Az.
Max El.
End time (UTC)
End Az.
9 mins2025-07-01 08:46:57.831Z319.737° NNW2025-07-01 08:51:57.831Z241.507° WSW33.202°2025-07-01 08:55:57.831Z188.599° SSW
9 mins2025-07-01 21:54:57.831Z184.754° SSW2025-07-01 21:58:57.831Z116.59° SE41.457°2025-07-01 22:03:57.831Z31.514° NE
7 mins2025-07-01 23:40:57.831Z271.826° WNW2025-07-01 23:43:57.831Z310.231° NW19.57°2025-07-01 23:47:57.831Z355.033° N
8 mins2025-07-02 06:50:57.831Z8.46° NNE2025-07-02 06:53:57.831Z49.605° ENE24.847°2025-07-02 06:58:57.831Z113.395° SE
5 mins2025-07-02 08:34:57.831Z315.337° NNW2025-07-02 08:38:57.831Z245.393° WSW33.683°2025-07-02 08:39:57.831Z220.979° SW
|